Home > Weather > The Bottom > Past weeks

Flag for Caribbean Netherlands Past Weather in The Bottom, Saba, Caribbean Netherlands — Yesterday and Last 2 Weeks

Now
88 °F

Warm.


Feels Like: 96 °F
Forecast: 80 / 89 °F
Wind: 18 mph from East

Location: Roosevelt Airport / Saint Eustatius

Current Time: Jun 29, 2016 at 4:01:55 PM

Latest Report: Jun 29, 2016 at 2:55 PM


Visibility: N/A

Pressure: 30.04 "Hg

Humidity: 62%

Dew Point: 73 °F

Location of The BottomLocation

Past Weather in The Bottom — Graph

°F

The Bottom Temperature Yesterday

Maximum temperature yesterday: 88 °F (at 12:55 PM)
Minimum temperature yesterday: 77 °F (at 2:55 AM)
Average temperature yesterday: 83 °F

High & Low Weather Summary for the Past Weeks

 TemperatureHumidityPressure
High90 °F (Jun 17, 12:55 PM)94% (Jun 19, 8:55 PM)30.15 "Hg (Jun 19, 8:55 PM)
Low77 °F (Jun 19, 8:55 PM)59% (Jun 15, 11:55 AM)30.01 "Hg (Jun 17, 3:55 AM)
Average83 °F74%30.06 "Hg
* Reported Jun 14 1:55 PM — Jun 29 1:55 PM, The Bottom, Weather by CustomWeather, © 2016

Note: Actual official high and low records may vary slightly from our data, if they occured in-between our weather recording intervals... More about our weather records

Advertising

The Bottom Weather History for the Previous 24 Hours

Scroll right to see more
 ConditionsComfort  
Time TempWeatherWind HumidityBarometerVisibility
1:55 PM
Wed, Jun 29
88 °FWarm.18 mph59%30.04 "HgN/A
12:55 PM88 °FWarm.20 mph59%30.07 "HgN/A
11:55 AM88 °FWarm.18 mph59%30.07 "HgN/A
10:55 AM88 °FWarm.18 mph62%30.07 "HgN/A
9:55 AM86 °FWarm.18 mph66%30.07 "HgN/A
8:55 AM84 °FWarm.15 mph70%30.07 "HgN/A
7:55 AM84 °FWarm.16 mph70%30.07 "HgN/A
6:55 AM82 °FWarm.13 mph74%30.07 "HgN/A
5:55 AM81 °FWarm.10 mph79%30.04 "HgN/A
4:55 AM81 °FWarm.10 mph74%30.04 "HgN/A
3:55 AM81 °FWarm.12 mph79%30.04 "HgN/A
2:55 AM81 °FWarm.10 mph74%30.04 "HgN/A
1:55 AM77 °FWarm.15 mph83%30.04 "HgN/A
12:55 AM81 °FWarm.14 mph79%30.04 "HgN/A
11:55 PM
Tue, Jun 28
81 °FWarm.13 mph79%30.07 "HgN/A
10:55 PM81 °FWarm.14 mph79%30.07 "HgN/A
9:55 PM81 °FWarm.12 mph79%30.07 "HgN/A
8:55 PM82 °FWarm.14 mph74%30.07 "HgN/A
7:55 PM82 °FWarm.13 mph74%30.04 "HgN/A
6:55 PM82 °FWarm.10 mph74%30.04 "HgN/A
5:55 PM84 °FWarm.10 mph70%30.01 "HgN/A
4:55 PM86 °FWarm.13 mph66%30.01 "HgN/A
Weather by CustomWeather, © 2016

See weather overviewHow to use our weather pages